Theta_e
304 304 305 307 312 316 315 314 312 303 299 293 296 303 308 310 311 311 312 315 314 308 304 299 296 294 292 292 291 291 290 290 289 289 289 289 289 288
300 304 306 307 312 315 315 315 313 314 309 297 295 298 302 303 306 307 309 309 309 303 297 295 293 292 290 289 289 290 289 289 288 287 287 287 287 286
299 302 306 310 312 313 313 312 311 313 308 294 295 297 295 298 300 303 304 300 298 295 293 292 292 292 289 288 287 287 288 287 286 285 285 285 284 284
298 301 307 311 313 312 311 310 310 311 303 293 291 292 292 293 294 295 294 294 293 291 290 291 290 288 287 286 286 285 285 285 284 283 283 282 282 283
299 301 306 310 311 309 309 307 307 307 305 296 292 292 290 291 291 289 289 288 289 288 288 287 287 286 286 285 284 283 282 282 281 281 280 280 281 282
296 298 303 310 308 307 306 305 306 302 297 292 290 288 287 286 286 284 284 286 286 286 286 285 285 284 284 283 283 282 280 280 279 278 279 280 280 280
295 297 300 308 308 309 307 302 301 296 293 290 287 286 284 284 284 284 282 282 283 284 284 283 283 283 283 282 281 280 279 277 277 279 279 279 279 278
295 299 302 306 308 306 305 302 303 297 291 290 288 287 285 285 284 283 280 280 280 281 282 281 281 281 281 280 280 279 276 276 278 278 279 278 277 277
294 295 295 296 296 297 296 297 297 296 297 294 287 286 284 284 283 281 281 281 279 279 281 277 278 279 279 278 277 276 275 277 277 278 278 277 276 276
290 290 290 291 293 293 293 291 290 291 293 293 290 288 286 284 283 282 281 280 278 277 279 276 277 277 275 275 275 276 276 276 276 277 277 275 275 275
288 289 290 289 289 292 289 285 285 284 286 288 287 286 285 283 283 282 279 280 273 274 277 275 273 273 274 274 274 273 274 274 276 276 275 274 274 274
285 285 286 286 286 289 287 284 282 283 283 283 283 282 281 281 282 283 282 279 273 273 274 274 272 273 272 272 272 272 273 274 275 273 272 271 271 271
283 283 284 284 285 285 285 283 281 280 280 281 280 279 279 280 281 282 282 284 277 274 275 274 272 272 272 271 272 272 271 271 271 271 270 271 271 271
282 283 283 284 283 282 282 280 280 283 281 279 278 277 278 279 279 280 279 278 276 277 276 275 274 273 272 270 272 271 271 270 270 270 270 271 270 270
283 283 282 282 281 280 279 283 283 282 281 277 275 275 275 275 275 275 275 274 274 274 274 273 273 273 272 272 271 270 270 269 269 270 269 268 269 269
279 278 277 277 278 278 278 278 278 279 278 276 274 273 272 272 273 273 272 272 272 271 271 271 271 271 271 270 270 269 269 268 269 268 268 268 268 268
278 277 276 276 275 275 275 275 275 275 275 274 274 273 272 271 271 271 272 271 271 270 270 270 270 269 269 269 268 269 268 267 268 268 268 266 267 268
278 277 275 274 274 273 273 273 273 273 273 273 273 272 272 271 271 270 271 271 270 269 269 269 268 267 267 268 268 268 267 267 268 268 266 263 264 267
276 276 276 275 274 274 274 273 272 272 272 272 272 272 272 271 270 270 270 270 269 268 268 268 267 266 266 268 268 268 267 267 267 266 265 264 264 265
278 277 276 276 276 275 275 275 274 273 273 272 272 272 271 271 270 269 269 269 268 267 267 266 266 266 266 267 266 267 267 267 266 265 264 264 264 264
279 278 278 277 277 276 276 276 275 274 273 273 272 272 271 270 270 269 269 269 268 267 266 266 268 267 266 265 264 264 267 266 265 265 264 263 263 264
280 279 279 279 278 278 278 277 276 275 274 273 273 272 271 270 270 270 269 268 267 267 267 267 267 266 265 264 265 264 265 265 265 265 265 265 265 265
279 279 279 278 278 278 278 278 277 277 276 276 275 273 272 271 271 270 268 268 267 267 267 266 265 265 264 264 263 263 263 263 263 265 266 266 266 266
Wind_Speed
30 31 34 36 32 29 27 26 17 7 11 15 16 46 47 45 46 43 47 59 62 58 56 48 42 36 29 25 23 21 18 14 12 10 8 7 7 8
27 28 32 35 34 28 29 29 28 22 10 19 23 24 45 41 41 43 44 51 60 58 51 45 40 34 28 25 23 20 17 15 12 9 7 7 8 8
31 34 32 33 29 38 31 28 26 19 8 5 18 21 33 40 38 42 47 50 48 45 43 39 34 30 29 27 23 18 16 13 12 10 8 8 7 8
28 24 32 32 31 34 34 30 27 24 11 6 13 17 22 33 35 38 37 41 38 38 35 34 31 30 27 25 21 17 15 13 11 9 8 8 7 8
27 31 28 34 31 30 30 31 30 27 23 17 10 20 21 34 35 32 32 32 36 29 28 28 28 26 23 21 19 17 14 12 11 11 9 7 7 8
28 28 29 35 34 37 34 33 33 27 22 22 19 17 21 25 29 31 28 31 31 27 27 25 22 22 20 19 18 16 13 12 12 11 9 8 8 8
34 30 31 35 39 43 40 34 33 25 21 20 16 17 19 29 29 25 24 29 26 27 27 24 23 22 19 16 15 15 13 12 11 9 9 9 9 8
20 24 29 36 36 36 35 35 38 34 22 16 12 19 23 28 24 31 31 22 6 23 26 23 21 21 21 17 17 16 13 12 10 10 10 10 8 9
19 22 23 24 28 29 28 27 25 25 26 29 26 23 25 31 32 29 27 22 10 22 24 17 18 18 16 16 18 16 13 11 10 10 11 9 9 10
20 21 25 27 28 31 30 28 22 17 15 18 24 29 28 34 32 30 29 24 18 23 22 6 16 13 17 19 18 13 13 11 10 11 13 10 11 12
27 26 27 28 25 28 33 32 30 23 15 14 16 20 20 30 32 33 29 26 6 6 18 8 13 13 14 16 18 19 14 11 11 12 10 10 12 15
31 31 28 28 25 29 34 36 29 23 32 34 32 28 23 22 20 24 36 25 14 5 18 10 13 9 5 12 15 15 14 15 17 13 10 13 15 16
27 27 27 28 27 27 31 31 31 35 35 39 33 28 26 22 18 21 27 26 14 4 18 16 12 13 5 5 9 13 13 13 14 13 13 17 19 11
28 29 27 28 26 26 30 30 32 37 36 35 33 28 24 20 20 21 21 13 7 4 20 19 8 11 9 6 5 9 11 12 11 12 15 10 15 20
32 28 26 27 26 28 24 28 28 30 33 29 29 25 22 23 22 20 16 12 10 13 16 15 7 11 9 7 4 6 4 6 12 10 10 18 19 21
25 25 23 25 28 30 27 25 25 27 28 30 27 24 22 20 19 17 16 14 12 12 11 10 9 8 7 9 10 11 13 7 7 16 18 20 19 22
24 25 26 26 27 26 25 22 20 20 23 24 24 22 19 17 14 12 12 11 6 8 10 10 9 9 10 10 9 15 15 15 15 15 18 18 21 23
20 20 18 17 19 19 19 18 15 14 14 15 15 16 15 14 12 11 9 8 8 8 8 9 10 7 7 10 16 19 15 15 13 14 16 14 19 24
18 14 15 14 14 13 12 11 12 12 12 12 12 11 11 12 13 12 10 10 10 10 12 13 12 10 3 3 5 13 15 14 15 17 17 17 19 28
11 9 9 9 9 9 9 9 9 9 7 7 8 10 13 14 15 15 15 14 13 12 12 13 15 16 9 4 3 7 10 15 15 14 16 19 24 24
5 5 5 4 5 5 6 6 7 8 9 10 13 14 15 16 15 16 15 16 16 14 13 16 18 12 12 11 6 8 13 10 10 14 16 16 18 14
7 6 4 3 3 4 5 6 8 10 12 14 16 16 17 18 19 19 19 18 19 18 17 14 9 11 13 12 10 8 13 16 14 16 16 18 18 7
10 10 11 12 12 11 12 12 13 14 16 16 17 19 19 21 22 21 20 20 19 18 17 13 12 12 12 11 11 12 15 17 18 19 15 12 14 18
Wind_Direction
230 224 226 231 233 234 220 201 195 185 213 212 201 218 219 219 216 215 207 206 202 191 186 176 171 172 171 177 181 182 185 189 197 210 223 239 254 264
236 233 228 229 223 226 218 215 209 216 216 200 207 213 215 216 217 218 207 193 191 182 173 169 167 171 173 177 182 179 181 187 194 207 223 236 243 258
231 234 236 228 218 217 209 205 205 217 202 161 198 206 201 205 200 195 188 174 169 170 168 166 167 175 172 178 178 173 181 185 197 206 215 224 236 253
245 246 232 225 209 195 195 195 198 205 171 156 155 166 186 187 181 166 164 163 166 167 164 162 168 168 172 173 168 173 180 192 205 209 208 221 240 260
246 243 242 224 200 192 191 189 192 188 190 166 139 166 160 174 163 158 156 152 154 157 154 159 162 166 169 169 172 177 185 196 207 209 213 221 244 257
255 252 246 219 197 190 182 183 184 177 162 139 118 131 143 153 154 143 136 153 150 156 158 160 161 169 168 173 179 186 191 205 207 208 213 227 237 250
244 247 242 223 206 201 190 183 174 155 146 140 129 149 144 156 163 158 144 148 149 158 160 163 171 174 173 178 177 188 198 212 209 208 224 222 230 253
228 230 223 214 205 200 192 190 186 163 145 139 153 159 167 169 160 158 149 148 150 177 172 174 185 185 183 183 202 215 218 213 210 221 219 222 241 269
180 170 159 160 157 157 152 157 159 165 175 174 154 163 163 168 158 154 159 160 148 171 182 178 188 189 192 205 217 220 215 211 225 224 216 228 257 271
111 118 120 128 137 139 135 126 125 131 162 182 180 175 175 167 164 159 156 148 138 164 180 150 192 194 208 215 215 211 212 228 231 214 213 238 263 273
93 108 116 110 117 133 123 106 97 94 114 142 150 159 156 164 173 165 147 138 104 163 181 163 179 188 204 216 217 220 221 231 213 207 228 256 269 287
73 78 92 100 111 126 121 111 104 110 110 107 103 106 125 144 168 180 167 147 130 139 192 170 159 162 171 213 213 219 222 205 195 213 240 268 285 292
71 68 75 89 104 117 123 117 118 120 112 115 119 124 125 140 156 169 169 167 146 117 179 175 171 174 145 151 197 212 210 210 224 247 264 281 289 289
80 82 84 91 100 106 108 113 119 123 121 119 120 117 124 136 142 154 165 170 168 140 168 180 163 174 165 161 184 203 219 227 248 264 287 284 293 292
89 92 95 99 99 96 100 114 121 118 120 119 119 128 142 142 140 142 146 153 146 144 163 183 185 179 181 186 180 210 233 244 264 267 289 298 304 304
100 99 97 101 104 110 110 110 118 124 128 127 131 138 140 140 146 153 151 148 140 146 166 188 200 206 214 227 239 253 259 265 261 293 301 301 306 303
100 98 99 104 105 103 103 107 112 123 129 136 142 147 150 156 159 163 166 165 162 177 194 211 224 230 234 242 252 260 264 269 283 298 301 303 305 303
92 92 89 97 103 109 110 109 114 122 132 143 145 153 163 171 173 182 187 194 196 204 201 205 211 218 255 259 252 260 268 274 288 297 298 294 293 304
102 107 109 110 115 120 124 133 141 146 149 152 155 162 176 190 198 203 208 211 215 220 219 216 207 208 199 243 272 253 257 276 295 294 293 284 284 296
101 111 123 128 141 152 154 148 152 164 168 174 185 198 206 211 209 217 220 224 225 223 221 220 223 224 214 227 239 253 234 270 279 285 291 295 294 293
67 87 114 146 170 180 187 194 201 206 212 215 221 225 228 229 234 235 236 238 237 232 234 236 246 255 248 248 258 264 287 284 268 285 292 297 296 289
326 320 311 278 249 237 231 231 231 230 232 234 236 238 239 241 246 249 245 240 238 239 245 255 251 226 220 225 253 271 285 297 297 294 283 268 270 282
292 292 289 283 276 267 258 251 249 248 247 248 248 247 245 243 247 249 250 248 246 245 244 237 230 225 230 238 259 277 285 298 306 309 301 299 288 288